Flag for U.S.A. Weather past 2 weeks in Fort Bragg, California, U.S.A.

Now
76 °F

Sunny.


Feels Like: 78 °F
Forecast: 49 / 61 °F
Wind: 3 mph from North

Location: Ukiah Municipal

Current Time: Mar 30, 2015 at 1:20:18 PM

Latest Report: Mar 30, 2015 at 12:56 PM


Visibility: 10 mi

Pressure: 30.02 "Hg

Humidity: 36%

Dew point: 47 °F

Location of Fort BraggLocation

Historic Weather in Fort Bragg — Graph

°F

Fort Bragg temperature yesterday

Maximum temperature yesterday: 82 °F (at 3:56 PM)
Minimum temperature yesterday: 42 °F (at 6:56 AM)
Average temperature yesterday: 61 °F

Past Weeks' High & Low Weather Summary

 TemperatureHumidityPressure
High86 °F (Mar 26, 4:56 PM)93% (Mar 22, 6:56 AM)30.31 "Hg (Mar 22, 6:56 AM)
Low40 °F (Mar 18, 6:56 AM)13% (Mar 19, 4:56 PM)29.96 "Hg (Mar 18, 5:56 PM)
Average58 °F64%30.12 "Hg
* Reported Mar 15 11:56 AM — Mar 30 11:56 AM, Fort Bragg, Weather by CustomWeather, © 2015

Note: Actual official high and low records may vary slightly from our data, if they occured in-between our weather recording intervals... More about our weather records

Advertising

Fort Bragg weather history for previous 24 hours

 ConditionsComfort  
Time TempWeatherWind HumidityBarometerVisibility
11:56 AM
Mon, Mar 30
70 °FSunny.No wind44%30.04 "Hg10 mi
10:56 AM66 °FSunny.6 mph50%30.05 "Hg10 mi
9:56 AM62 °FSunny.No wind58%30.05 "Hg10 mi
8:56 AM56 °FSunny.No wind70%30.05 "Hg10 mi
7:56 AM50 °FClear.No wind83%30.04 "Hg10 mi
6:56 AM48 °FClear.No wind86%30.03 "Hg10 mi
5:56 AM50 °FClear.3 mph83%30.02 "Hg10 mi
4:56 AM48 °FClear.5 mph86%30.02 "Hg10 mi
3:56 AM51 °FClear.3 mph80%30.03 "Hg10 mi
2:56 AM49 °FClear.No wind86%30.03 "Hg10 mi
1:56 AM52 °FClear.No wind77%30.05 "Hg10 mi
12:56 AM53 °FClear.No wind77%30.05 "Hg10 mi
11:56 PM
Sun, Mar 29
54 °FClear.No wind77%30.05 "Hg10 mi
10:56 PM58 °FClear.No wind65%30.06 "Hg10 mi
9:56 PM62 °FClear.No wind58%30.04 "Hg10 mi
8:56 PM65 °FClear.3 mph52%30.03 "Hg10 mi
7:56 PM68 °FSunny.No wind49%30.01 "Hg10 mi
6:56 PM75 °FSunny.6 mph33%30.00 "Hg10 mi
5:56 PM79 °FSunny.7 mph29%29.99 "Hg10 mi
4:56 PM81 °FSunny.7 mph27%29.99 "Hg10 mi
3:56 PM82 °FSunny.10 mph28%30.01 "Hg10 mi
2:56 PM79 °FSunny.No wind35%30.03 "Hg10 mi
1:56 PM76 °FSunny.3 mph37%30.05 "Hg10 mi
Weather by CustomWeather, © 2015

See weather overviewHow to use our weather pages